Regional Weather Roundup
Issued by NWS

Home | Current Version | Previous Version | Graphics & Text | Print | Product List | Glossary On
Versions: 1 2 3 4 5 6 7 8 9 10 11 12 13 14 15 16 17 18 19 20 21 22 23 24 25 26 27 28 29 30 31 32 33 34 35 36 37 38 39 40 41 42 43 44 45 46 47 48 49 50
000
ASUS43 KMKX 012311
RWRWI

WISCONSIN REGIONAL WEATHER ROUNDUP
NATIONAL WEATHER SERVICE MILWAUKEE/SULLIVAN WI
500 PM CST SUN FEB 01 2015

NOTE: "FAIR" INDICATES FEW OR NO CLOUDS BELOW 12,000 FEET WITH NO
SIGNIFICANT WEATHER AND/OR OBSTRUCTIONS TO VISIBILITY.

WIZ001-002-006>008-014>016-023>028-020000-
NORTHWEST WISCONSIN

CITY           SKY/WX    TMP DP  RH WIND       PRES   REMARKS
SUPERIOR ARPT  CLEAR      8  -8  46 N9        30.31S WCI  -5
ASHLAND        CLOUDY     9   1  70 N16       30.28S WCI  -8
HAYWARD        PTCLDY     9  -2  61 NE13      30.21S WCI  -7
SIREN          FAIR      11   0  61 N12       30.25R WCI  -4
CUMBERLAND     PTCLDY    12   0  57 NE9       30.18S WCI   0
RICE LAKE      PTCLDY    12   2  64 N17G23    30.20S WCI  -5
CHETEK         PTCLDY    13   2  63 MISG      30.18S
LADYSMITH      MOCLDY    13   1  58 N15       30.16S WCI  -2
EAU CLAIRE     CLOUDY    15   0  51 N9        30.16R WCI   3
MENOMONIE      MOCLDY    15   4  60 N13       30.18R WCI   1
NEW RICHMOND   PTCLDY    13   1  59 NE15      30.21R WCI  -3
OSCEOLA        PTCLDY    14   2  59 N10       30.26S WCI   1
$$

WIZ003>005-009-010-017-018-020000-
NORTH CENTRAL WISCONSIN

CITY           SKY/WX    TMP DP  RH WIND       PRES   REMARKS
MANITOWISH WTR MOCLDY     7  -4  60 NE8       30.13S WCI  -6
ARBOR VITAE    MOCLDY    11   1  64 N12       30.12S WCI  -3
WOODRUFF       MOCLDY    11   1  64 N12       30.12S WCI  -3
RHINELANDER    CLOUDY     9  -2  61 VRB5      30.10S WCI   1
EAGLE RIVER    CLOUDY     8  -3  62 NE9G17    30.10S WCI  -6
LAND O LAKES   CLOUDY     8   1  72 N10       30.13S WCI  -6
PHILLIPS       FAIR       9  -2  61 N9        30.12S WCI  -4
TOMAHAWK       MOCLDY    10  -1  61 N8        30.11S WCI  -2
MEDFORD        MOCLDY    10  -1  60 N14       30.09S WCI  -6
MERRILL        CLOUDY    11  -1  57 NE15G23   30.10S WCI  -5
$$

WIZ029-030-035-036-043>047-020000-
CENTRAL WISCONSIN

CITY           SKY/WX    TMP DP  RH WIND       PRES   REMARKS
WAUSAU         CLOUDY    12   0  58 NE10G21   30.08S WCI  -1
MOSINEE        PTCLDY    12   1  62 N15G21    30.08F WCI  -4
MARSHFIELD     CLOUDY    13   1  59 N14       30.08S WCI  -2
STEVENS POINT  CLOUDY    11  -1  58 NE15G22   30.08S WCI  -5
WAUPACA        CLOUDY    13  -2  52 N12G18    30.09S WCI  -1
WAUTOMA        CLOUDY    10   1  67 NE13      30.09R HAZE    WCI  -5
WISC RAPIDS    CLOUDY    14  -1  51 NE10      30.10R WCI   1
CAMP DOUGLAS   FLURRIES  12  10  88 NE5       30.09R WCI   5
$$

WIZ011>013-019>022-031-037>040-048>050-020000-
NORTHEAST WISCONSIN

CITY           SKY/WX    TMP DP  RH WIND       PRES   REMARKS
ANTIGO         CLOUDY     9   1  67 NE13      30.07F WCI  -6
SHAWANO        CLOUDY    14   2  61 NE12      30.12S WCI   0
OCONTO         CLOUDY     9  -2  59 NE10      30.14S WCI  -5
STURGEON BAY   CLOUDY     7  -4  61 N17G26    30.12S WCI -12
GREEN BAY      CLOUDY     9  -1  64 NE28G35   30.11R WCI -13
MANITOWOC      SNOW      12   9  87 N17G26    30.02F VSB 1/2 WCI  -5
APPLETON       LGT SNOW   9  -4  56 NE22G29   30.06S WCI -11
CLINTONVILLE   CLOUDY    12   0  57 NE13G21   30.10F WCI  -3
OSHKOSH        SNOW       8   3  80 NE23G35   30.04F VSB 1/2 WCI -13
$$

WIZ032>034-041-042-053>061-020000-
SOUTHWEST WISCONSIN

CITY           SKY/WX    TMP DP  RH WIND       PRES   REMARKS
LA CROSSE      CLOUDY    16   5  62 N14       30.13R WCI   2
SPARTA         CLOUDY    14   8  75 N10       30.12R WCI   1
VIROQUA        CLOUDY    12   9  87 N14       30.04R VSB 1   WCI  -3
BOSCOBEL       LGT SNOW  14   7  73 N13G23    30.06R VSB 1   WCI   0
PRAIRIE DU CHI MIX PCPN  15   7  71 N14G24    30.06R WCI   0
PLATTEVILLE    CLOUDY    13  10  86 N28G33    29.94R VSB 3/4 WCI  -7
$$

WIZ056-057-062-063-064-067-068-020000-
SOUTH CENTRAL WISCONSIN

CITY           SKY/WX    TMP DP  RH WIND       PRES   REMARKS
REEDSBURG      LGT SNOW  10   5  80 N14G20    30.06R WCI  -7
BARABOO/DELLS  LGT SNOW   9   4  80 NE14      30.04R WCI  -7
LONE ROCK      LGT SNOW  12   5  73 N15G24    30.05R VSB 1   WCI  -4
MINERAL POINT  LGT SNOW  14   9  79 N24G33    29.94R VSB 1   WCI  -5
MADISON        SNOW      11   6  81 N25G36    29.98R VSB 1/2 WCI -10
MIDDLETON      CLOUDY    13   7  79 N21G29    29.99R VSB 3/4 WCI  -6
WATERTOWN      CLOUDY     9   6  87 N20G28    29.94R WCI -10
MONROE         LGT SNOW  14  10  85 N30G37    29.88R VSB 3/4 WCI  -7
JANESVILLE     LGT SNOW  14   9  79 N20G29    29.89R VSB 3/4 WCI  -3
$$

WIZ051-052-058>065-066-070>072-020000-
SOUTHEAST WISCONSIN

CITY           SKY/WX    TMP DP  RH WIND       PRES   REMARKS
MILWAUKEE      SNOW      21  17  84 NE26G41   29.87F VSB 1/4 WCI   4
WAUKESHA       LGT SNOW  18  14  86 NE12G35   29.89F VSB 3/4 WCI   5
MILWAUKEE/TIMM SNOW      21  16  79 NE23G36   29.90F VSB 1/2 WCI   5
RACINE         HVY SNOW  20  17  88 NE26G40   29.86F VSB 1/4 WCI   2
BURLINGTON     LGT SNOW  19  16  88 N17G31    29.86R VSB 3/4 WCI   4
KENOSHA        SNOW      21  18  88 NE21G31   29.83F VSB 1/4 WCI   5
FOND DU LAC    HAZE       8   3  80 N25G37    30.03F VSB 1/2 WCI -13
SHEBOYGAN      LGT SNOW  13   9  84 N15G24    29.97S VSB 3/4 WCI  -3
WEST BEND      SNOW      14  10  85 N17G25    29.93S VSB 1/2 WCI  -3
JUNEAU         SNOW       7   3  83 N26G36    29.97R VSB 1/2 WCI -15
$$

LSZ147-162-020000-
LAKE SUPERIOR

STATION/POSITION TIME  TEMP    WIND        PRES    WAVE
                       AIR SEA DIR/SP/G            HT/PER
                 (UTC) (F)     (DEG/KT/KT) (MB)    (FT/S)
DEVILS ISLAND    2300   10      10/  9/ 12 1027.9F
PORT WING        2200   12      30/  9/ 16 1026.4
SAXON HARBOR     2200   15      20/ 16/ 19 1024.7F
$$

LMZ867-665-643>646-020000-
LAKE MICHIGAN

STATION/POSITION TIME  TEMP    WIND        PRES    WAVE
                       AIR SEA DIR/SP/G            HT/PER
                 (UTC) (F)     (DEG/KT/KT) (MB)    (FT/S)
NORTHPORT PIER   2200    8     360/ 18/ 22 1021.7F
SISTER BAY       2243    7      10/ 17/ 24   N/A
KEWAUNEE LAKESHO 2200   16      40/ 27/ 33 1017.6F
SHEBOYGAN LAKESH 2300   19      30/ 36/ 38 1015.9F
PORT WASHINGTON  2200   22      40/ 24/ 34 1015.2R
MILWAUKEE LAKESH 2200   23      40/ 33/ 39   N/A
KENOSHA   LAKESH 2300   22      30/ 33/ 41 1010.5F
$$

TC  - TEMPERATURE IN CELSIUS
VSB - VISIBILITY IN STATUTE MILES
WCI - WIND CHILL INDEX
HX  - HEAT INDEX



USA.gov is the U.S. government's official web portal to all federal, state and local government web resources and services.